Regional Weather Roundup
Issued by NWS San Angelo, TX

Home | Current Version | Previous Version | Text Only | Print | Product List | Glossary On
Versions: 1 2 3 4 5 6 7 8 9 10 11 12 13 14 15 16 17 18 19 20 21 22 23 24 25 26 27 28 29 30 31 32 33 34 35 36 37 38 39 40 41 42 43 44 45 46 47 48 49 50
000
ASUS44 KSJT 271310
RWRSJT
WEST CENTRAL TEXAS REGIONAL WEATHER ROUNDUP
NATIONAL WEATHER SERVICE SAN ANGELO TX
800 AM CDT MON APR 27 2015

NOTE: "FAIR" INDICATES FEW OR NO CLOUDS BELOW 12,000 FEET WITH NO
SIGNIFICANT WEATHER AND/OR OBSTRUCTIONS TO VISIBILITY.

TXZ049-054-064>066-071>073-076>078-098-099-113-114-127-128-139-140-
154-155-168>170-271400
...LOCATIONS ACROSS WEST CENTRAL TEXAS...

CITY           SKY/WX    TMP DP  RH WIND       PRES   REMARKS
SAN ANGELO     SUNNY     57  53  86 NW9       29.75R
ABILENE        CLOUDY    57  56  96 NW9       29.73R
DYESS AFB      DRIZZLE   57  55  94 NW9       29.73R
JUNCTION       SUNNY     57  55  93 CALM      29.73R
SWEETWATER     CLOUDY    56  56 100 NW6       29.79R
BROWNWOOD      CLOUDY    57  57 100 W8        29.73R
COLEMAN        CLOUDY    59  58  97 NW7       29.74R
SONORA         SUNNY     54  52  94 CALM      29.80R
OZONA          FAIR      50  34  53 CALM      29.80R
BRADY          SUNNY     61  59  94 W6        29.72R
$$

TEXAS PANHANDLE/OKLAHOMA PANHANDLE

CITY           SKY/WX    TMP DP  RH WIND       PRES   REMARKS
AMARILLO       RAIN      45  44  97 N20       29.87R FOG     WCI  37
BORGER         HVY RAIN  47  45  93 NE13      29.87R FOG
CANADIAN       LGT RAIN  48  47  97 NE26G39   29.81S WCI  39
DALHART        RAIN      44  42  93 N20       29.94R FOG     WCI  36
DUMAS          LGT SNOW  43  42  97 N16G23    29.90S WCI  35
GUYMON         NOT AVBL
HEREFORD       RAIN      46  46  98 MISG      29.88S
PAMPA          CLOUDY    45  44  96 N15       29.85R WCI  38
PERRYTON       CLOUDY    44  42  94 NE25G33   29.85F WCI  35
$$

SOUTHERN PANHANDLE/SOUTH PLAINS/ROLLING PLAINS

CITY           SKY/WX    TMP DP  RH WIND       PRES   REMARKS
LUBBOCK        PTSUNNY   48  45  89 N15       29.80S
SNYDER         CLOUDY    54  53  96 N9        29.79R
CHILDRESS      LGT RAIN  50  49  96 N12       29.77S
SEMINOLE       MOSUNNY   51  49  93 N3        29.83R
$$

PERMIAN BASIN

CITY           SKY/WX    TMP DP  RH WIND       PRES   REMARKS
MIDLAND        SUNNY     50  40  68 NW8       29.80R
ODESSA         CLEAR     51  37  58 NW8       29.80R
WINK           CLEAR     46  32  58 W3        29.79R
$$

FAR WEST/SOUTHWEST MOUNTAINS/TRANS PECOS

CITY           SKY/WX    TMP DP  RH WIND       PRES   REMARKS
ALPINE         SUNNY     50  32  50 SW10      29.93R
DRYDEN           N/A     57  36  45 W6        29.79R
EL PASO        PTCLDY    51  36  56 N8        29.86R
FORT STOCKTON  CLEAR     52  34  50 SW8       29.82R
GUADALUPE PASS CLEAR     41  34  76 S8        29.88R WCI  36
MARFA          CLEAR     45  34  65 W9        29.91R WCI  40
PECOS          SUNNY     50  37  60 W7        29.82R
$$

DALLAS/FORT WORTH METROPLEX

CITY           SKY/WX    TMP DP  RH WIND       PRES   REMARKS
DFW AIRPORT    PTSUNNY   65  60  84 E12       29.70R
FTW MEACHAM    PTSUNNY   65  60  84 E7        29.69R
DAL-EXECUTIVE  PTSUNNY   64  61  90 E7        29.70R
GRAND PRAIRIE  SUNNY     66  61  82 E8        29.72R
ADDISON        CLOUDY    63  57  82 NE16G23   29.71R
MESQUITE       CLOUDY    63  61  94 NE9G16    29.71R
LANCASTER      MOSUNNY   62  59  90 CALM      29.71R
$$

NORTH CENTRAL TEXAS

CITY           SKY/WX    TMP DP  RH WIND       PRES   REMARKS
SHRMAN/DENISON CLOUDY    59  57  94 E18G24    29.78S
GAINESVILLE    CLOUDY    58  56  92 E18       29.77R
BRIDGEPORT     CLOUDY    64  64 100 E10G17    29.69S
DENTON         CLOUDY    62  58  86 E18G24    29.72R
WAXAHACHIE     PTSUNNY   61  61 100 CALM      29.71R
GRANBURY         N/A     65  61  88 E10       29.69R
$$

WESTERN NORTH TEXAS

CITY           SKY/WX    TMP DP  RH WIND       PRES   REMARKS
WICHITA FALLS  CLOUDY    62  58  86 E21G30    29.69R
VERNON         CLOUDY    57  52  83 E22       29.66F THUNDER
BRECKENRIDGE   CLOUDY    62  60  95 W7        29.70R
COMANCHE       SUNNY     58  58 100 S3        29.69R FOG
$$

CENTRAL AND SOUTH CENTRAL TEXAS

CITY           SKY/WX    TMP DP  RH WIND       PRES   REMARKS
AUSTIN/BERGSTM PTSUNNY   64  63  96 NE3       29.68R
WACO           PTSUNNY   64  61  90 E9        29.67F
HILLSBORO      NOT AVBL
TEMPLE         CLOUDY    63  57  82 NE3       29.69R
KILLEEN-GRAY   MOSUNNY   62  60  93 SE3       29.71R
FORT HOOD      PTSUNNY   63  60  91 E5        29.70R
GEORGETOWN     CLOUDY    63  59  88 N3        29.70R
LAGO VISTA     CLOUDY    62  61  95 N3        29.72R
SAN MARCOS     PTSUNNY   64  61  88 MISG      29.69R
NEW BRAUNFELS  PTSUNNY   65  62  90 N6        29.67R
RANDOLPH AFB   MOSUNNY   63  62  96 N8        29.68R
SAN ANTONIO    PTSUNNY   64  59  83 NW9       29.67R
STINSON        SUNNY     64  63  96 W3        29.66R
PLEASANTON     NOT AVBL
LA GRANGE      PTSUNNY   66  65  96 N5        29.66R
GIDDINGS       MOSUNNY   64  63  94 NE5       29.71S
$$

EAST TEXAS

CITY           SKY/WX    TMP DP  RH WIND       PRES   REMARKS
PARIS          CLOUDY    55  48  76 MISG      29.80F
CLARKSVILLE    NOT AVBL
TYLER          CLOUDY    60  57  89 NE17G26   29.72R
LONGVIEW       CLOUDY    59  55  87 E14G22    29.75R
PALESTINE      CLOUDY   N/A N/A N/A E18G25    29.65S
NACOGDOCHES    CLOUDY    61  57  88 E22G31    29.67F
$$

TEXAS HILL COUNTRY AND EDWARDS PLATEAU

CITY           SKY/WX    TMP DP  RH WIND       PRES   REMARKS
LLANO          PTSUNNY   63  61  94 NW5       29.75R
HORSESHOE BAY  FAIR      62  60  94 CALM      29.72R
KERRVILLE      MOSUNNY   59  56  92 NW10      29.73R
FREDERICKSBRG  PTSUNNY   60  57  91 NW9       29.73R
ROCKSPRINGS    SUNNY     57  52  82 CALM      29.78R
HONDO          PTSUNNY   63  59  87 NW8       29.71R
UVALDE         NOT AVBL
DEL RIO        SUNNY     60  42  51 NW5       29.73R
$$

SOUTHEAST TEXAS

CITY           SKY/WX    TMP DP  RH WIND       PRES   REMARKS
COLLEGE STN    SUNNY     65  62  90 NE8       29.67R
CALDWELL       SUNNY     63  63 100 NW5       29.71S
CROCKETT       NOT AVBL
BRENHAM        MOSUNNY   67  65  94 N3        29.68R
HUNTSVILLE     CLOUDY    65  63  93 E8        29.69R
CONROE         PTSUNNY   65  61  87 VRB6      29.69R
HOUSTON BUSH   PTSUNNY   67  63  87 NE9       29.66R
HOUSTON HOBBY  CLOUDY    69  64  84 NE9       29.64S
PERLAND        CLOUDY    70  65  84 NE9       29.66R
WHARTON        CLOUDY    70  67  90 NE6       29.64R
$$

THE UPPER TEXAS COAST

CITY           SKY/WX    TMP DP  RH WIND       PRES   REMARKS
ORANGE         CLOUDY    66  62  86 N5        29.72S
PORT ARTHUR    TSTM      67  64  90 N12       29.67F
GALVESTON      CLOUDY    73  69  87 N20G25    29.65R
ANGLETON       LGT RAIN  70  70 100 N13G22    29.63R FOG
BAY CITY       CLOUDY    77  77 100 NE7       29.61F FOG
$$

TEXAS COASTAL BEND, RIO GRANDE PLAINS DEEP SOUTH TEXAS

CITY           SKY/WX    TMP DP  RH WIND       PRES   REMARKS
VICTORIA       CLOUDY    68  67  96 N8        29.63R
BEEVILLE       FAIR      69  66  90 N6        29.63R
ROCKPORT       CLOUDY    78  76  93 E10       29.57S FOG
PORT ARANSAS   CLOUDY    76  76  99 NE6       29.58R FOG
PORT LAVACA    CLOUDY    72  70  94 N13       29.62R
CORPUS CHRISTI CLOUDY    78  74  87 NE9       29.56R FOG
KINGSVILLE NAS CLOUDY    74  71  91 NW17      29.61R FOG
COTULLA        MOSUNNY   64  56  75 NW8       29.69R
LAREDO         CLOUDY    69  49  48 NW15      29.70R
BROWNSVILLE    CLOUDY    81  78  91 W10       29.56R FOG
PORT ISABEL    CLOUDY    81  77  88 NW7       29.55R FOG
HEBBRONVILLE   CLOUDY    69  66  90 NW13G20   29.67R
MCALLEN        CLOUDY    82  77  84 NW6       29.57R HAZE
WESLACO        CLOUDY    79  76  91 CALM      29.55R FOG
FALFURRIAS     CLOUDY    74  67  77 NW12      29.60R
EDINBURG       NOT AVBL
$$


USA.gov is the U.S. government's official web portal to all federal, state and local government web resources and services.